LEMUR-2-REDFERN-GOES

Last updated on Dec. 6, 2018, 12:02 a.m. UTC

1 42059U 98067LA  18339.01149047  .06489327  12347-4  60049-3 0  9992
2 42059  51.6164 167.8673 0006595 274.6680  85.3593 16.37893608100365

Satellite is not in orbit.